PST,Max TemperatureF,Mean TemperatureF,Min TemperatureF,Max Dew PointF,MeanDew PointF,Min DewpointF,Max Humidity, Mean Humidity, Min Humidity, Max Sea Level PressureIn, Mean Sea Level PressureIn, Min Sea Level PressureIn, Max VisibilityMiles, Mean VisibilityMiles, Min VisibilityMiles, Max Wind SpeedMPH, Mean Wind SpeedMPH, Max Gust SpeedMPH,PrecipitationIn, CloudCover, Events, WindDirDegrees
2011-12-1,67,59,51,31,20,14,41,27,13,29.93,29.81,29.77,10,10,10,23,6,44,0.00,0,,11
2011-12-2,64,56,47,44,38,32,71,51,30,30.01,29.96,29.93,10,10,10,10,2,17,0.00,0,,124
2011-12-3,65,55,45,40,21,0,66,37,8,30.22,30.08,29.98,10,10,10,10,2,20,0.00,0,,72
2011-12-4,63,51,39,36,24,11,56,35,14,30.25,30.18,30.11,10,10,10,7,1,12,0.00,0,,80
2011-12-5,64,53,41,32,28,19,65,42,19,30.29,30.20,30.13,10,10,10,7,0,12,0.00,0,,340
2011-12-6,63,50,37,36,25,10,64,39,14,30.33,30.29,30.26,10,10,5,7,1,12,0.00,0,,295
2011-12-7,67,54,41,44,25,13,80,47,13,30.25,30.14,30.06,10,10,9,8,1,12,0.00,0,,291
2011-12-8,67,55,42,43,33,21,80,52,23,30.12,30.07,30.03,10,10,10,6,1,8,0.00,0,,270
2011-12-9,69,56,42,49,38,30,83,55,26,30.16,30.11,30.07,10,9,2,6,0,9,0.00,0,,275
2011-12-10,70,58,45,48,35,22,89,53,16,30.13,30.07,30.03,10,10,7,8,1,12,0.00,0,,180
2011-12-11,59,53,47,46,43,41,86,72,57,30.03,29.95,29.86,10,10,7,7,0,12,0.00,5,,68
2011-12-12,53,51,48,47,45,43,86,76,66,29.86,29.80,29.75,10,7,2,10,4,15,0.79,8,Rain,95
2011-12-13,62,54,46,46,43,37,93,68,42,30.09,29.93,29.86,10,9,2,8,1,14,0.17,2,Rain,70
2011-12-14,61,53,45,49,43,39,93,72,51,30.27,30.22,30.11,10,9,6,7,1,12,0.00,2,,83
2011-12-15,58,51,43,45,43,39,93,77,61,30.24,30.14,30.06,10,8,2,10,1,15,0.04,3,Rain,275
2011-12-16,68,54,40,44,37,27,93,60,26,30.10,30.06,30.01,10,9,6,6,1,12,0.00,0,,246
2011-12-17,64,56,48,46,40,34,71,56,40,30.14,30.07,30.01,10,10,10,8,1,12,0.01,5,Rain,345
2011-12-18,63,55,47,50,47,42,89,72,55,30.17,30.11,30.07,10,10,9,6,0,9,0.00,4,,120
2011-12-19,58,53,48,48,47,45,93,78,62,30.09,30.05,30.00,10,8,4,7,1,10,0.00,6,,102
2011-12-20,64,55,45,47,42,38,93,68,42,30.04,29.99,29.94,10,10,7,7,1,10,0.00,0,,290
2011-12-21,64,54,43,50,43,35,89,69,48,30.09,30.02,29.96,10,9,5,5,0,10,0.00,1,,96
2011-12-22,65,55,44,48,31,1,89,49,8,30.37,30.21,30.10,10,9,6,14,1,24,0.00,2,,55
2011-12-23,67,53,39,37,22,5,54,32,9,30.46,30.39,30.35,10,10,10,7,1,12,0.00,0,,265
2011-12-24,71,56,40,28,21,8,59,34,9,30.38,30.33,30.27,10,10,4,7,0,10,0.00,0,,280
2011-12-25,72,56,40,43,26,14,71,41,11,30.34,30.26,30.19,10,10,9,6,0,10,0.00,0,,270
2011-12-26,71,57,42,44,29,18,80,47,14,30.24,30.20,30.17,10,10,10,6,1,10,0.00,0,,62
2011-12-27,69,55,41,46,37,25,86,53,20,30.23,30.20,30.14,10,9,7,7,0,9,0.00,0,,185
2011-12-28,76,60,44,45,32,20,86,50,14,30.22,30.16,30.10,10,10,7,7,1,12,0.00,0,,275
2011-12-29,73,60,47,52,42,29,89,56,23,30.09,30.03,29.96,10,8,6,6,0,7,0.00,0,,205
2011-12-30,66,56,46,50,47,43,96,76,56,30.09,30.02,29.99,7,4,1,5,0,7,0.00,1,,280
2011-12-31,74,58,41,51,46,41,93,63,33,30.09,30.03,29.97,7,3,1,6,0,8,0.00,0,,285